Time,TemperatureF,DewpointF,PressureIn,WindDirection,WindDirectionDegrees,WindSpeedMPH,WindSpeedGustMPH,Humidity,HourlyPrecipIn,Conditions,Clouds,dailyrainin,SoftwareType,DateUTC
2013-04-09 00:00:00,42.0,-99.9,-100.00,North,-999,-999.0,-999.0,-999,0.00,,,0.08,,2013-04-09 07:00:00,
2013-04-09 00:33:00,42.0,-99.9,-100.00,North,-999,-999.0,-999.0,-999,0.00,,,0.08,,2013-04-09 07:33:00,
2013-04-09 00:42:00,42.0,-99.9,-100.00,North,-999,-999.0,-999.0,-999,0.00,,,0.08,,2013-04-09 07:42:00,
2013-04-09 00:53:00,42.0,-99.9,-100.00,North,-999,-999.0,-999.0,-999,0.00,,,0.08,,2013-04-09 07:53:00,
2013-04-09 01:00:00,42.0,-99.9,-100.00,North,-999,-999.0,-999.0,-999,0.00,,,0.07,,2013-04-09 08:00:00,
2013-04-09 01:22:00,42.0,-99.9,-100.00,North,-999,-999.0,-999.0,-999,0.00,,,0.07,,2013-04-09 08:22:00,
2013-04-09 01:32:00,42.0,-99.9,-100.00,North,-999,-999.0,-999.0,-999,0.00,,,0.07,,2013-04-09 08:32:00,
2013-04-09 01:43:00,42.0,-99.9,-100.00,North,-999,-999.0,-999.0,-999,0.00,,,0.07,,2013-04-09 08:43:00,
2013-04-09 01:53:00,42.0,-99.9,-100.00,North,-999,-999.0,-999.0,-999,0.00,,,0.07,,2013-04-09 08:53:00,
2013-04-09 02:00:00,39.0,-99.9,-100.00,North,-999,-999.0,-999.0,-999,0.00,,,0.07,,2013-04-09 09:00:00,
2013-04-09 02:23:00,39.0,-99.9,-100.00,North,-999,-999.0,-999.0,-999,0.00,,,0.07,,2013-04-09 09:23:00,
2013-04-09 02:33:00,39.0,-99.9,-100.00,North,-999,-999.0,-999.0,-999,0.00,,,0.07,,2013-04-09 09:33:00,
2013-04-09 02:44:00,39.0,-99.9,-100.00,North,-999,-999.0,-999.0,-999,0.00,,,0.07,,2013-04-09 09:44:00,
2013-04-09 02:53:00,39.0,-99.9,-100.00,North,-999,-999.0,-999.0,-999,0.00,,,0.07,,2013-04-09 09:53:00,
2013-04-09 03:00:00,40.0,-99.9,-100.00,North,-999,-999.0,-999.0,-999,0.00,,,0.07,,2013-04-09 10:00:00,
2013-04-09 03:33:00,40.0,-99.9,-100.00,North,-999,-999.0,-999.0,-999,0.00,,,0.07,,2013-04-09 10:33:00,
2013-04-09 03:43:00,40.0,-99.9,-100.00,North,-999,-999.0,-999.0,-999,0.00,,,0.07,,2013-04-09 10:43:00,
2013-04-09 03:55:00,40.0,-99.9,-100.00,North,-999,-999.0,-999.0,-999,0.00,,,0.07,,2013-04-09 10:55:00,
2013-04-09 04:00:00,40.0,-99.9,-100.00,North,-999,-999.0,-999.0,-999,0.00,,,0.07,,2013-04-09 11:00:00,
2013-04-09 04:22:00,40.0,-99.9,-100.00,North,-999,-999.0,-999.0,-999,0.00,,,0.07,,2013-04-09 11:22:00,
2013-04-09 04:33:00,40.0,-99.9,-100.00,North,-999,-999.0,-999.0,-999,0.00,,,0.07,,2013-04-09 11:33:00,
2013-04-09 04:43:00,40.0,-99.9,-100.00,North,-999,-999.0,-999.0,-999,0.00,,,0.07,,2013-04-09 11:43:00,
2013-04-09 04:52:00,40.0,-99.9,-100.00,North,-999,-999.0,-999.0,-999,0.00,,,0.07,,2013-04-09 11:52:00,
2013-04-09 05:00:00,40.0,-99.9,-100.00,North,-999,-999.0,-999.0,-999,0.00,,,0.07,,2013-04-09 12:00:00,
2013-04-09 05:22:00,40.0,-99.9,-100.00,North,-999,-999.0,-999.0,-999,0.00,,,0.07,,2013-04-09 12:22:00,
2013-04-09 05:33:00,40.0,-99.9,-100.00,North,-999,-999.0,-999.0,-999,0.00,,,0.07,,2013-04-09 12:33:00,
2013-04-09 05:43:00,40.0,-99.9,-100.00,North,-999,-999.0,-999.0,-999,0.00,,,0.07,,2013-04-09 12:43:00,
2013-04-09 05:53:00,40.0,-99.9,-100.00,North,-999,-999.0,-999.0,-999,0.00,,,0.07,,2013-04-09 12:53:00,
2013-04-09 06:00:00,40.0,-99.9,-100.00,North,-999,-999.0,-999.0,-999,0.00,,,0.06,,2013-04-09 13:00:00,
2013-04-09 06:23:00,40.0,-99.9,-100.00,North,-999,-999.0,-999.0,-999,0.00,,,0.06,,2013-04-09 13:23:00,
2013-04-09 06:33:00,40.0,-99.9,-100.00,North,-999,-999.0,-999.0,-999,0.00,,,0.06,,2013-04-09 13:33:00,
2013-04-09 06:43:00,40.0,-99.9,-100.00,North,-999,-999.0,-999.0,-999,0.00,,,0.06,,2013-04-09 13:43:00,
2013-04-09 06:54:00,40.0,-99.9,-100.00,North,-999,-999.0,-999.0,-999,0.00,,,0.06,,2013-04-09 13:54:00,
2013-04-09 07:00:00,39.0,-99.9,-100.00,North,-999,-999.0,-999.0,-999,0.00,,,0.05,,2013-04-09 14:00:00,
2013-04-09 07:22:00,39.0,-99.9,-100.00,North,-999,-999.0,-999.0,-999,0.00,,,0.05,,2013-04-09 14:22:00,
2013-04-09 07:33:00,39.0,-99.9,-100.00,North,-999,-999.0,-999.0,-999,0.00,,,0.05,,2013-04-09 14:33:00,
2013-04-09 07:43:00,39.0,-99.9,-100.00,North,-999,-999.0,-999.0,-999,0.00,,,0.05,,2013-04-09 14:43:00,
2013-04-09 07:53:00,39.0,-99.9,-100.00,North,-999,-999.0,-999.0,-999,0.00,,,0.05,,2013-04-09 14:53:00,
2013-04-09 08:00:00,39.0,-99.9,-100.00,North,-999,-999.0,-999.0,-999,0.00,,,0.02,,2013-04-09 15:00:00,
2013-04-09 08:23:00,39.0,-99.9,-100.00,North,-999,-999.0,-999.0,-999,0.00,,,0.02,,2013-04-09 15:23:00,
2013-04-09 08:35:00,39.0,-99.9,-100.00,North,-999,-999.0,-999.0,-999,0.00,,,0.02,,2013-04-09 15:35:00,
2013-04-09 08:44:00,39.0,-99.9,-100.00,North,-999,-999.0,-999.0,-999,0.00,,,0.02,,2013-04-09 15:44:00,
2013-04-09 08:54:00,39.0,-99.9,-100.00,North,-999,-999.0,-999.0,-999,0.00,,,0.02,,2013-04-09 15:54:00,
2013-04-09 09:00:00,41.0,-99.9,-100.00,North,-999,-999.0,-999.0,-999,0.00,,,0.01,,2013-04-09 16:00:00,
2013-04-09 09:24:00,41.0,-99.9,-100.00,North,-999,-999.0,-999.0,-999,0.00,,,0.01,,2013-04-09 16:24:00,
2013-04-09 09:34:00,41.0,-99.9,-100.00,North,-999,-999.0,-999.0,-999,0.00,,,0.01,,2013-04-09 16:34:00,
2013-04-09 09:43:00,41.0,-99.9,-100.00,North,-999,-999.0,-999.0,-999,0.00,,,0.01,,2013-04-09 16:43:00,
2013-04-09 09:55:00,41.0,-99.9,-100.00,North,-999,-999.0,-999.0,-999,0.00,,,0.01,,2013-04-09 16:55:00,
2013-04-09 10:00:00,44.0,-99.9,-100.00,North,-999,-999.0,-999.0,-999,0.00,,,0.00,,2013-04-09 17:00:00,
2013-04-09 10:24:00,44.0,-99.9,-100.00,North,-999,-999.0,-999.0,-999,0.00,,,0.00,,2013-04-09 17:24:00,
2013-04-09 10:33:00,44.0,-99.9,-100.00,North,-999,-999.0,-999.0,-999,0.00,,,0.00,,2013-04-09 17:33:00,
2013-04-09 10:43:00,44.0,-99.9,-100.00,North,-999,-999.0,-999.0,-999,0.00,,,0.00,,2013-04-09 17:43:00,
2013-04-09 10:55:00,44.0,-99.9,-100.00,North,-999,-999.0,-999.0,-999,0.00,,,0.00,,2013-04-09 17:55:00,
2013-04-09 11:00:00,48.0,-99.9,-100.00,North,-999,-999.0,-999.0,-999,0.00,,,-99.99,,2013-04-09 18:00:00,
2013-04-09 11:23:00,48.0,-99.9,-100.00,North,-999,-999.0,-999.0,-999,0.00,,,-99.99,,2013-04-09 18:23:00,
2013-04-09 11:34:00,48.0,-99.9,-100.00,North,-999,-999.0,-999.0,-999,0.00,,,-99.99,,2013-04-09 18:34:00,
2013-04-09 11:44:00,48.0,-99.9,-100.00,North,-999,-999.0,-999.0,-999,0.00,,,-99.99,,2013-04-09 18:44:00,
2013-04-09 11:54:00,48.0,-99.9,-100.00,North,-999,-999.0,-999.0,-999,0.00,,,-99.99,,2013-04-09 18:54:00,
2013-04-09 12:00:00,49.0,-99.9,-100.00,North,-999,-999.0,-999.0,-999,0.00,,,0.00,,2013-04-09 19:00:00,
2013-04-09 12:33:00,49.0,-99.9,-100.00,North,-999,-999.0,-999.0,-999,0.00,,,0.00,,2013-04-09 19:33:00,
2013-04-09 12:43:00,49.0,-99.9,-100.00,North,-999,-999.0,-999.0,-999,0.00,,,0.00,,2013-04-09 19:43:00,
2013-04-09 12:53:00,49.0,-99.9,-100.00,North,-999,-999.0,-999.0,-999,0.00,,,0.00,,2013-04-09 19:53:00,
2013-04-09 13:00:00,51.0,-99.9,-100.00,North,-999,-999.0,-999.0,-999,0.00,,,0.00,,2013-04-09 20:00:00,
2013-04-09 13:23:00,51.0,-99.9,-100.00,North,-999,-999.0,-999.0,-999,0.00,,,0.00,,2013-04-09 20:23:00,
2013-04-09 13:35:00,51.0,-99.9,-100.00,North,-999,-999.0,-999.0,-999,0.00,,,0.00,,2013-04-09 20:35:00,
2013-04-09 13:44:00,51.0,-99.9,-100.00,North,-999,-999.0,-999.0,-999,0.00,,,0.00,,2013-04-09 20:44:00,
2013-04-09 13:53:00,51.0,-99.9,-100.00,North,-999,-999.0,-999.0,-999,0.00,,,0.00,,2013-04-09 20:53:00,
2013-04-09 15:00:00,51.0,-99.9,-100.00,North,-999,-999.0,-999.0,-999,0.00,,,0.00,,2013-04-09 22:00:00,
2013-04-09 15:24:00,51.0,-99.9,-100.00,North,-999,-999.0,-999.0,-999,0.00,,,0.00,,2013-04-09 22:24:00,
2013-04-09 15:34:00,51.0,-99.9,-100.00,North,-999,-999.0,-999.0,-999,0.00,,,0.00,,2013-04-09 22:34:00,
2013-04-09 15:43:00,51.0,-99.9,-100.00,North,-999,-999.0,-999.0,-999,0.00,,,0.00,,2013-04-09 22:43:00,
2013-04-09 15:54:00,51.0,-99.9,-100.00,North,-999,-999.0,-999.0,-999,0.00,,,0.00,,2013-04-09 22:54:00,
2013-04-09 16:00:00,52.0,-99.9,-100.00,North,-999,-999.0,-999.0,-999,0.00,,,0.00,,2013-04-09 23:00:00,
2013-04-09 16:23:00,52.0,-99.9,-100.00,North,-999,-999.0,-999.0,-999,0.00,,,0.00,,2013-04-09 23:23:00,
2013-04-09 16:33:00,52.0,-99.9,-100.00,North,-999,-999.0,-999.0,-999,0.00,,,0.00,,2013-04-09 23:33:00,
2013-04-09 16:43:00,52.0,-99.9,-100.00,North,-999,-999.0,-999.0,-999,0.00,,,0.00,,2013-04-09 23:43:00,
2013-04-09 16:53:00,52.0,-99.9,-100.00,North,-999,-999.0,-999.0,-999,0.00,,,0.00,,2013-04-09 23:53:00,
2013-04-09 17:00:00,52.0,-99.9,-100.00,North,-999,-999.0,-999.0,-999,0.00,,,0.00,,2013-04-10 00:00:00,
2013-04-09 17:33:00,52.0,-99.9,-100.00,North,-999,-999.0,-999.0,-999,0.00,,,0.00,,2013-04-10 00:33:00,
2013-04-09 17:43:00,52.0,-99.9,-100.00,North,-999,-999.0,-999.0,-999,0.00,,,0.00,,2013-04-10 00:43:00,
2013-04-09 17:53:00,52.0,-99.9,-100.00,North,-999,-999.0,-999.0,-999,0.00,,,0.00,,2013-04-10 00:53:00,
2013-04-09 18:00:00,51.0,-99.9,-100.00,North,-999,-999.0,-999.0,-999,0.00,,,0.00,,2013-04-10 01:00:00,
2013-04-09 18:23:00,51.0,-99.9,-100.00,North,-999,-999.0,-999.0,-999,0.00,,,0.00,,2013-04-10 01:23:00,
2013-04-09 18:33:00,51.0,-99.9,-100.00,North,-999,-999.0,-999.0,-999,0.00,,,0.00,,2013-04-10 01:33:00,
2013-04-09 18:43:00,51.0,-99.9,-100.00,North,-999,-999.0,-999.0,-999,0.00,,,0.00,,2013-04-10 01:43:00,
2013-04-09 18:53:00,51.0,-99.9,-100.00,North,-999,-999.0,-999.0,-999,0.00,,,0.00,,2013-04-10 01:53:00,
2013-04-09 19:00:00,49.0,-99.9,-100.00,North,-999,-999.0,-999.0,-999,0.00,,,0.00,,2013-04-10 02:00:00,
2013-04-09 19:23:00,49.0,-99.9,-100.00,North,-999,-999.0,-999.0,-999,0.00,,,0.00,,2013-04-10 02:23:00,
2013-04-09 19:33:00,49.0,-99.9,-100.00,North,-999,-999.0,-999.0,-999,0.00,,,0.00,,2013-04-10 02:33:00,
2013-04-09 19:43:00,49.0,-99.9,-100.00,North,-999,-999.0,-999.0,-999,0.00,,,0.00,,2013-04-10 02:43:00,
2013-04-09 19:53:00,49.0,-99.9,-100.00,North,-999,-999.0,-999.0,-999,0.00,,,0.00,,2013-04-10 02:53:00,
2013-04-09 20:00:00,48.0,-99.9,-100.00,North,-999,-999.0,-999.0,-999,0.00,,,0.00,,2013-04-10 03:00:00,
2013-04-09 20:22:00,48.0,-99.9,-100.00,North,-999,-999.0,-999.0,-999,0.00,,,0.00,,2013-04-10 03:22:00,
2013-04-09 20:33:00,48.0,-99.9,-100.00,North,-999,-999.0,-999.0,-999,0.00,,,0.00,,2013-04-10 03:33:00,
2013-04-09 20:43:00,48.0,-99.9,-100.00,North,-999,-999.0,-999.0,-999,0.00,,,0.00,,2013-04-10 03:43:00,
2013-04-09 20:53:00,48.0,-99.9,-100.00,North,-999,-999.0,-999.0,-999,0.00,,,0.00,,2013-04-10 03:53:00,
2013-04-09 23:00:00,46.0,-99.9,-100.00,North,-999,-999.0,-999.0,-999,0.00,,,0.00,,2013-04-10 06:00:00,
2013-04-09 23:22:00,46.0,-99.9,-100.00,North,-999,-999.0,-999.0,-999,0.00,,,0.00,,2013-04-10 06:22:00,
2013-04-09 23:32:00,46.0,-99.9,-100.00,North,-999,-999.0,-999.0,-999,0.00,,,0.00,,2013-04-10 06:32:00,
2013-04-09 23:43:00,46.0,-99.9,-100.00,North,-999,-999.0,-999.0,-999,0.00,,,0.00,,2013-04-10 06:43:00,
2013-04-09 23:52:00,46.0,-99.9,-100.00,North,-999,-999.0,-999.0,-999,0.00,,,0.00,,2013-04-10 06:52:00,